カタログに戻る

COSMOS 2509

運用中ナビゲーションPO
NORAD 40922·PAYLOAD·🇷🇺 Russia

打ち上げ Sep 23, 2015 から Plesetsk Cosmodrome

Loading…

次のパス (今後24時間)

TLE

最新Source: Space-Track

元期: Sep 14, 2026, 15:21 UTC

1 40922U 15050C   26257.63990762 -.00000051  00000-0 -44043-3 0  9998
2 40922  82.4923  22.5431 0014448 202.3861 157.6589 12.42886240497993

AllMySatでCOSMOS 2509をリアルタイム追跡

Download on the App Store